Meteopurmerend
purmerend
Purmerend - Baaienwijk



My webcam  My webcam


waarschuwing voor Onweer Meer informatie blitzortung!


Regen radar Meer informatie rain snow radar


Bezoek onze andere website:

CandyAppleRed WebdesignWebdesign Purmerend Candy Apple Red

MeteopurmerendBlog

Template documentation
and downloads



Onweer van: 26-07-2021 13:00 tot: 21:00 waarschuwing voor: Onweer niveau: Geel info button
Enkele onweersbuien, lokaal met hagel en veel neerslag in korte tijd.Kans op blikseminslag, hagel en veel neerslag in korte tijd.Verkeer en buitenactiviteiten kunnen hinder ondervinden.Mijd open water en open gebied, schuil niet onder bomen.Volg weerberichten en waarschuwingen.

15 daagse weersverwachting Skien (NO)

  • Overzicht
  • Per uur
  • 15 dagen
  • Extra
  • Vergelijk
  • Kaarten
  • Dagkaart
  • Meer »
  • Info
  • Statistieken
  • Directe link
    Temp 6h Neerslag Wind  
 04:58     22:00    Daglengte: 17:02 Vandaag
20:00
21°
1.8 mm
3
warningclass
 05:00     21:57    Daglengte: 16:57 Morgen
02:00
19°
14.0 mm
3
warningclass
08:00
19°
10.6 mm
3
warningclass
14:00
20°
25.2 mm
3
warningclass
20:00
19°
27.8 mm
2
warningclass
 05:02     21:55    Daglengte: 16:53 Woensdag 28 Jul
02:00
17°
10.6 mm
1
08:00
18°
6.8 mm
1
14:00
20°
23.0 mm
3
20:00
19°
27.1 mm
2
 05:05     21:53    Daglengte: 16:48 Donderdag 29 Jul
02:00
15°
10.5 mm
2
08:00
16°
29.8 mm
1
Locatie info
Region: Telemark
Latitude: 59.2092°N
Longitude: 9.6086°E
27 masl
Postcode: 3717
Temp/Neerslag /Baro Onweer/Dauwpunt
    Temp Baro 1h Neerslag Dauwpunt Wind UV Bewolking  
 04:58     22:00    Daglengte: 17:02 Vandaag
16:00
23°
1013.8 hPa
36%
11.7°
4
Windvlaag: 3.3 m/s
79%
17:00
23°
1013.5 hPa 0.3 mm
82%
13.1°
4
Windvlaag: 1.9 m/s
79%
18:00
22°
1013.4 hPa
80%
13.5°
4
Windvlaag: 1.7 m/s
69%
19:00
22°
1013.2 hPa
80%
14.3°
3
Windvlaag: 2.2 m/s
81%
20:00
21°
1013.0 hPa 1.5 mm
82%
15.2°
3
Windvlaag: 0.9 m/s
81% warningclass
21:00
20°
1012.9 hPa 1.8 mm
82%
15.8°
3
Windvlaag: 1.2 m/s
72%
22:00
19°
1013.0 hPa 2.9 mm
82%
17.7°
3
Windvlaag: 1.3 m/s
83% warningclass
23:00
19°
1013.1 hPa
82%
18.0°
2
Windvlaag: -1.1 m/s
86% warningclass
 05:00     21:57    Daglengte: 16:57 Morgen
00:00
19°
1012.8 hPa 3.2 mm
82%
18.0°
3
Windvlaag: -1.3 m/s
81% warningclass
01:00
19°
1012.3 hPa 3.7 mm
82%
18.1°
2
Windvlaag: -1 m/s
70% warningclass
02:00
19°
1012.2 hPa 2.3 mm
82%
18.0°
3
Windvlaag: -2.4 m/s
86% warningclass
03:00
19°
1011.7 hPa
82%
18.2°
2
Windvlaag: -2.7 m/s
79% warningclass
04:00
19°
1011.6 hPa 2.6 mm
82%
18.2°
2
Windvlaag: -1.6 m/s
83% warningclass
05:00
19°
1011.1 hPa 2.6 mm
82%
18.3°
2
Windvlaag: -1.4 m/s
86% warningclass
06:00
19°
1011.0 hPa 3.2 mm
82%
18.0°
3
Windvlaag: -1 m/s
86% warningclass
07:00
19°
1010.8 hPa 2.2 mm
82%
18.3°
3
Windvlaag: -1 m/s
78%
08:00
19°
1010.8 hPa
80%
18.6°
3
Windvlaag: 0.4 m/s
86% warningclass
09:00
20°
1010.7 hPa 2.7 mm
82%
18.4°
3
Windvlaag: 2.7 m/s
86% warningclass
10:00
20°
1010.4 hPa 4.0 mm
82%
17.6°
3
Windvlaag: 2.7 m/s
86% warningclass
11:00
19°
1010.1 hPa 5.3 mm
82%
16.3°
4
Windvlaag: -0.7 m/s
86% warningclass
12:00
19°
1009.8 hPa 4.0 mm
82%
17.7°
3
Windvlaag: -0.2 m/s
86% warningclass
13:00
20°
1009.5 hPa 4.4 mm
82%
15.6°
3
Windvlaag: -3.5 m/s
86% warningclass
14:00
20°
1009.1 hPa 4.8 mm
82%
16.2°
3
Windvlaag: -2.2 m/s
86% warningclass
15:00
20°
1008.7 hPa 5.1 mm
82%
17.6°
3
Windvlaag: -4 m/s
77% warningclass
16:00
20°
1008.4 hPa 5.8 mm
82%
17.8°
3
Windvlaag: -1.5 m/s
83% warningclass
17:00
20°
1007.9 hPa 4.5 mm
82%
17.9°
3
Windvlaag: -1 m/s
85% warningclass
18:00
20°
1007.5 hPa 4.1 mm
82%
18.1°
3
Windvlaag: -1.2 m/s
84% warningclass
19:00
20°
1007.2 hPa 3.8 mm
82%
18.0°
3
Windvlaag: -1.1 m/s
84% warningclass
20:00
19°
1006.8 hPa 4.5 mm
82%
17.9°
2
Windvlaag: -0.6 m/s
84% warningclass
21:00
19°
1006.8 hPa 3.9 mm
82%
18.0°
2
Windvlaag: -0.5 m/s
84% warningclass
22:00
18°
1007.0 hPa 3.5 mm
82%
18.0°
1
Windvlaag: 2.8 m/s
83% warningclass
23:00
18°
1007.0 hPa 3.2 mm
80%
17.6°
1
Windvlaag: 2.5 m/s
79%
 05:02     21:55    Daglengte: 16:53 Woensdag 28 Jul
00:00
17°
1007.0 hPa
80%
17.3°
1
Windvlaag: 1.4 m/s
80%
01:00
17°
1006.6 hPa
79%
17.3°
1
Windvlaag: 0.5 m/s
79%
02:00
17°
1006.3 hPa
77%
17.1°
1
Windvlaag: -0.6 m/s
74%
03:00
17°
1005.7 hPa
76%
16.9°
1
Windvlaag: -1.6 m/s
74%
04:00
17°
1005.4 hPa
78%
16.7°
1
Windvlaag: -1.4 m/s
61%
05:00
17°
1005.0 hPa
80%
16.5°
1
Windvlaag: -1.6 m/s
62%
06:00
17°
1004.8 hPa
82%
16.5°
1
Windvlaag: -0.8 m/s
71%
07:00
17°
1004.7 hPa 3.3 mm
82%
16.9°
1
Windvlaag: -0.6 m/s
86%
08:00
18°
1004.6 hPa 3.5 mm
82%
17.4°
1
Windvlaag: 1.6 m/s
83%
09:00
18°
1004.6 hPa 3.4 mm
82%
17.6°
1
Windvlaag: 4.4 m/s
64%
10:00
19°
1004.6 hPa 3.5 mm
82%
17.5°
1
Windvlaag: 4.5 m/s
62%
11:00
19°
1004.0 hPa 3.5 mm
100%
16.2°
2
Windvlaag: 4.8 m/s
89% warningclass
12:00
19°
1003.8 hPa 3.6 mm
100%
14.7°
2
Windvlaag: 4.7 m/s
95%
13:00
20°
1003.5 hPa 3.5 mm
100%
12.6°
3
Windvlaag: 4.5 m/s
95% warningclass
14:00
20°
1003.3 hPa 5.4 mm
100%
11.2°
3
Windvlaag: 5.7 m/s
73%
15:00
20°
1003.1 hPa 3.4 mm
100%
10.9°
3
Windvlaag: 5.8 m/s
92%
16:00
20°
1002.8 hPa 3.5 mm
97%
10.7°
3
Windvlaag: 6 m/s
85%
17:00
20°
1002.5 hPa 3.6 mm
88%
10.7°
3
Windvlaag: 5.6 m/s
74%
18:00
20°
1002.1 hPa 5.8 mm
81%
10.2°
3
Windvlaag: 5.1 m/s
73%
19:00
19°
1001.8 hPa 5.5 mm
82%
11.5°
2
Windvlaag: 4 m/s
75%
20:00
19°
1001.3 hPa 5.3 mm
77%
11.4°
2
Windvlaag: 3.7 m/s
44%
21:00
18°
1001.1 hPa
27%
12.7°
2
Windvlaag: 2.1 m/s
41%
22:00
17°
1001.0 hPa
26%
12.6°
2
Windvlaag: 2.3 m/s
43%
23:00
16°
1000.6 hPa
24%
13.8°
2
Windvlaag: 2 m/s
36%
 05:05     21:53    Daglengte: 16:48 Donderdag 29 Jul
00:00
16°
1000.1 hPa 5.2 mm
24%
14.2°
2
Windvlaag: 1.5 m/s
59%
01:00
16°
999.7 hPa 5.3 mm
24%
14.3°
2
Windvlaag: 0.7 m/s
80%
02:00
15°
999.2 hPa
24%
14.7°
2
Windvlaag: 0.2 m/s
87%
03:00
15°
998.7 hPa 5.2 mm
24%
15.0°
2
Windvlaag: -0.3 m/s
90%
04:00
15°
998.4 hPa 6.1 mm
30%
15.0°
2
Windvlaag: 0.7 m/s
97%
05:00
15°
998.1 hPa 6.0 mm
73%
14.6°
2
Windvlaag: 0.6 m/s
91%
06:00
15°
997.5 hPa 5.8 mm
90%
14.6°
1
Windvlaag: -0.6 m/s
99%
07:00
16°
997.2 hPa 3.4 mm
97%
14.2°
2
Windvlaag: -0 m/s
100%
08:00
16°
997.1 hPa 3.3 mm
100%
14.5°
1
Windvlaag: 1.3 m/s
97%
09:00
17°
994.7 hPa 5.8 mm
100%
15.4°
1
Windvlaag: 6.5 m/s
100% warningclass
10:00
17°
994.4 hPa 6.0 mm
100%
14.3°
2
Windvlaag: 8.1 m/s
97%
11:00
17°
994.2 hPa 5.8 mm
100%
14.1°
3
Windvlaag: 7.8 m/s
100%
12:00
18°
993.7 hPa 5.8 mm
100%
15.1°
2
Windvlaag: 6.8 m/s
100% warningclass
13:00
18°
993.3 hPa 6.6 mm
100%
15.4°
3
Windvlaag: 8.1 m/s
99% warningclass
14:00
19°
992.9 hPa
100%
16.2°
3
Windvlaag: 9.2 m/s
82%
Temp/Neerslag /Baro Onweer/Dauwpunt
    Temp Baro Neerslag Dauwpunt Wind Bewolking  
 04:58     22:00    Daglengte: 17:02 Vandaag
17:00
23°
1013.5 hPa 0.3 mm 13.1°
4
79%
20:00
21°
1013.0 hPa 1.5 mm 15.2°
3
81% warningclass
23:00
19°
1013.1 hPa 4.7 mm 18.0°
2
86% warningclass
 05:00     21:57    Daglengte: 16:57 Morgen
02:00
19°
1012.2 hPa 9.2 mm 18.0°
3
86% warningclass
05:00
19°
1011.1 hPa 5.2 mm 18.3°
2
86% warningclass
08:00
19°
1010.8 hPa 5.4 mm 18.6°
3
86% warningclass
11:00
19°
1010.1 hPa 12.0 mm 16.3°
4
86% warningclass
14:00
20°
1009.1 hPa 13.2 mm 16.2°
3
86% warningclass
17:00
20°
1007.9 hPa 15.4 mm 17.9°
3
85% warningclass
20:00
19°
1006.8 hPa 12.4 mm 17.9°
2
84% warningclass
23:00
18°
1007.0 hPa 10.6 mm 17.6°
1
79%
 05:02     21:55    Daglengte: 16:53 Woensdag 28 Jul
02:00
17°
1006.3 hPa   17.1°
1
74%
05:00
17°
1005.0 hPa   16.5°
1
62%
08:00
18°
1004.6 hPa 6.8 mm 17.4°
1
83%
11:00
19°
1004.0 hPa 10.4 mm 16.2°
2
89% warningclass
14:00
20°
1003.3 hPa 12.6 mm 11.2°
3
73%
17:00
20°
1002.5 hPa 10.5 mm 10.7°
3
74%
20:00
19°
1001.3 hPa 16.6 mm 11.4°
2
44%
23:00
16°
1000.6 hPa   13.8°
2
36%
 05:05     21:53    Daglengte: 16:48 Donderdag 29 Jul
02:00
15°
999.2 hPa 10.5 mm 14.7°
2
87%
05:00
15°
998.1 hPa 17.3 mm 14.6°
2
91%
08:00
16°
997.1 hPa 12.5 mm 14.5°
1
97%
11:00
17°
994.2 hPa 17.7 mm 14.1°
3
100%
14:00
19°
992.9 hPa 19.2 mm 16.2°
3
82%
17:00
15°
995.0 hPa 50.0 mm 13.3°
1
1%
20:00
14°
993.9 hPa 50.8 mm 13.2°
1
1%
23:00
12°
992.8 hPa 50.8 mm 11.9°
1
1%
 05:07     21:51    Daglengte: 16:44 Vrijdag 30 Jul
02:00
11°
991.9 hPa 50.8 mm 11.0°
2
1%
05:00
11°
991.5 hPa 50.8 mm 10.6°
2
1%
08:00
15°
991.6 hPa 50.8 mm 12.6°
1
1%
11:00
22°
992.4 hPa 50.8 mm 11.8°
1
1%
14:00
21°
993.2 hPa 50.9 mm 11.6°
2
1%
17:00
22°
994.4 hPa 50.9 mm 11.3°
2
1%
20:00
20°
994.6 hPa 50.9 mm 13.9°
2
0%
23:00
15°
995.8 hPa 50.9 mm 12.9°
1
0%
 05:09     21:48    Daglengte: 16:39 Zaterdag 31 Jul
02:00
14°
996.3 hPa 50.9 mm 12.0°
2
0%
05:00
14°
996.6 hPa 50.9 mm 11.7°
2
1%
08:00
17°
996.7 hPa 50.9 mm 11.7°
3
1%
11:00
19°
997.1 hPa 50.9 mm 9.9°
3
1%
14:00
22°
996.8 hPa 50.9 mm 10.2°
2
1%
17:00
19°
996.8 hPa 51.0 mm 13.5°
1
1%
20:00
17°
996.5 hPa 51.9 mm 14.8°
1
1%
23:00
14°
996.3 hPa 52.3 mm 12.7°
1
1%
 05:11     21:46    Daglengte: 16:35 Zondag 01 Aug
02:00
13°
995.6 hPa 52.4 mm 11.9°
1
1%
05:00
12°
995.2 hPa 52.6 mm 11.6°
2
1%
08:00
15°
995.0 hPa 53.1 mm 13.2°
2
1%
11:00
17°
995.2 hPa 54.2 mm 14.1°
3
1%
14:00
19°
994.9 hPa 55.0 mm 12.5°
3
1%
17:00
18°
995.2 hPa 55.8 mm 12.8°
3
1%
20:00
16°
995.8 hPa 57.0 mm 13.9°
2
1%
23:00
13°
996.3 hPa 60.0 mm 12.8°
2
1%
 05:14     21:44    Daglengte: 16:30 Maandag 02 Aug
02:00
13°
996.3 hPa 60.1 mm 12.0°
1
1%
05:00
12°
996.9 hPa 60.7 mm 11.4°
1
1%
08:00
13°
997.6 hPa 61.0 mm 12.1°
1
1%
11:00
16°
998.3 hPa 62.3 mm 10.2°
1
1%
14:00
18°
998.4 hPa 125.8 mm 7.8°
2
0%
20:00
16°
998.0 hPa 130.5 mm 11.5°
1
1%
 05:16     21:41    Daglengte: 16:25 Dinsdag 03 Aug
02:00
Voelt als: 6.7°
1001.0 hPa 131.9 mm 6.1°
3
0%
08:00
12°
1002.4 hPa 131.9 mm 6.3°
2
0%
14:00
20°
1002.0 hPa 131.9 mm 3.2°
3
0%
20:00
18°
1002.6 hPa 131.9 mm 6.1°
4
1%
 05:18     21:39    Daglengte: 16:21 Woensdag 04 Aug
02:00
Voelt als: 8.6°
1004.9 hPa 131.9 mm 5.7°
2
0%
08:00
13°
1004.0 hPa 131.9 mm 5.9°
1
1%
14:00
12°
1000.5 hPa 135.6 mm 11.0°
3
1%
20:00
12°
998.0 hPa 146.0 mm 11.3°
1
1%
 05:20     21:36    Daglengte: 16:16 Donderdag 05 Aug
02:00
11°
996.2 hPa 147.0 mm 10.8°
1
1%
08:00
13°
993.8 hPa 147.0 mm 11.4°
2
1%
14:00
19°
1006.6 hPa 1.3 mm 11.7°
2
73%
20:00
17°
1005.9 hPa 1.5 mm 12.4°
2
75%
 05:23     21:34    Daglengte: 16:11 Vrijdag 06 Aug
02:00
13°
1006.6 hPa 0.6 mm 11.4°
1
63%
08:00
15°
1005.9 hPa 0.6 mm 11.9°
2
68%
14:00
19°
1005.2 hPa 2.2 mm 12.8°
1
72%
20:00
18°
1003.8 hPa 1.9 mm 13.4°
1
76%
 05:25     21:31    Daglengte: 16:06 Zaterdag 07 Aug
02:00
14°
1004.1 hPa 2.1 mm 11.9°
1
69%
08:00
15°
1004.0 hPa 1.4 mm 12.4°
1
67%
14:00
19°
1003.8 hPa 0.5 mm 12.7°
1
65%
20:00
18°
1003.1 hPa 1.3 mm 13.5°
1
66%
 05:27     21:29    Daglengte: 16:02 Zondag 08 Aug
02:00
14°
1003.8 hPa 1.2 mm 12.1°
1
68%
08:00
15°
1003.6 hPa 1.9 mm 12.4°
2
76%
14:00
19°
1003.9 hPa 2.2 mm 13.4°
1
74%
20:00
18°
1003.7 hPa 1.7 mm 13.8°
1
76%
 05:29     21:26    Daglengte: 15:57 Maandag 09 Aug
02:00
14°
1004.9 hPa 1.2 mm 12.3°
1
66%
08:00
15°
1005.4 hPa 0.9 mm 12.3°
1
69%
14:00
20°
1006.0 hPa 0.8 mm 12.2°
1
70%
20:00
18°
1006.0 hPa 1.2 mm 13.2°
1
68%
 05:32     21:23    Daglengte: 15:51 Dinsdag 10 Aug
02:00
14°
1007.2 hPa 0.6 mm 11.6°
1
62%
08:00
15°
1007.5 hPa 0.2 mm 11.9°
1
61%
14:00
20°
1008.1 hPa 0.4 mm 11.7°
1
60%
  CAPE Lifted Index Hail Supercell Tornado SRH 3km CL BTM PRES CL TOP PRES Swiss DWD icon SMHI TS
 04:58     22:00    Daglengte: 17:02 Vandaag
16:00 459 J/kg -1.7 K 0 % 0 % 0 % 0 m²/s² 0 0 -0.8 80
17:00 537 J/kg -2.2 K 0 % 0 % 0 % 0 m²/s² 0 0 -1.72 80
18:00 589 J/kg -2.1 K 0 % 0 % 0 % 0 m²/s² 0 0 -1.83 3
19:00 604 J/kg -2.3 K 0 % 0 % 0 % 0 m²/s² 0 0 -1.91 3
20:00 624 J/kg -2.9 K 0 % 0 % 0 % 0 m²/s² 0 0 -2.9 95
21:00 109 J/kg -0.5 K 0 % 0 % 0 % 0 m²/s² 0 0 0.13 80
22:00 0 J/kg 1.0 K 0 % 0 % 0 % 0 m²/s² 0 0 1.48 95
23:00 10 J/kg -0.9 K 0 % 0 % 0 % 0 m²/s² 0 0 -0.9 95
 05:00     21:57    Daglengte: 16:57 Morgen
00:00 101 J/kg -0.9 K 0 % 0 % 0 % 0 m²/s² 0 0 -0.51 95
01:00 22 J/kg -2.0 K 0 % 0 % 0 % 0 m²/s² 0 0 -1.37 95
02:00 39 J/kg -1.4 K 0 % 0 % 0 % 0 m²/s² 0 0 -1.22 95
03:00 16 J/kg -1.3 K 0 % 0 % 0 % 0 m²/s² 0 0 -1.27 95
04:00 258 J/kg -2.3 K 0 % 0 % 0 % 0 m²/s² 0 0 -2.3 95
05:00 153 J/kg -1.3 K 0 % 0 % 0 % 0 m²/s² 0 0 -0.46 95
06:00 200 J/kg -1.4 K 0 % 0 % 0 % 0 m²/s² 0 0 -0.68 95
07:00 393 J/kg -1.6 K 0 % 0 % 0 % 0 m²/s² 0 0 -0.76 80
08:00 672 J/kg -2.4 K 0 % 0 % 0 % 0 m²/s² 0 0 -1.83 95
09:00 902 J/kg -2.7 K 0 % 0 % 0 % 0 m²/s² 0 0 -2.04 80
10:00 692 J/kg -2.1 K 0 % 0 % 0 % 0 m²/s² 0 0 -1.47 95
11:00 55 J/kg -0.7 K 0 % 0 % 0 % 0 m²/s² 0 0 -0.34 95
12:00 428 J/kg -1.7 K 0 % 0 % 0 % 0 m²/s² 0 0 -1.43 95
13:00 686 J/kg -2.8 K 0 % 0 % 0 % 0 m²/s² 0 0 -2.41 95
14:00 807 J/kg -3.1 K 0 % 0 % 0 % 0 m²/s² 0 0 -1.06 95
15:00 1235 J/kg -4.5 K 0 % 0 % 0 % 0 m²/s² 0 0 -2.25 95
16:00 1298 J/kg -4.6 K 0 % 0 % 0 % 0 m²/s² 0 0 -2.5 95
17:00 1095 J/kg -4.2 K 0 % 0 % 0 % 0 m²/s² 0 0 -2.43 95
18:00 853 J/kg -3.5 K 0 % 0 % 0 % 0 m²/s² 0 0 -1.97 95
19:00 793 J/kg -3.8 K 0 % 0 % 0 % 0 m²/s² 0 0 -2.42 95
20:00 625 J/kg -3.0 K 0 % 0 % 0 % 0 m²/s² 0 0 -1.29 95
21:00 433 J/kg -2.1 K 0 % 0 % 0 % 0 m²/s² 0 0 -0.27 95
22:00 321 J/kg -2.1 K 0 % 0 % 0 % 0 m²/s² 0 0 -0.57 95
23:00 354 J/kg -2.2 K 0 % 0 % 0 % 0 m²/s² 0 0 -0.55 80
 05:02     21:55    Daglengte: 16:53 Woensdag 28 Jul
00:00 517 J/kg -2.8 K 0 % 0 % 0 % 0 m²/s² 0 0 -1.66 80
01:00 473 J/kg -2.5 K 0 % 0 % 0 % 0 m²/s² 0 0 -1.36 3
02:00 384 J/kg -2.3 K 0 % 0 % 0 % 0 m²/s² 0 0 -1.04 3
03:00 286 J/kg -1.9 K 0 % 0 % 0 % 0 m²/s² 0 0 -0.37 3
04:00 267 J/kg -1.6 K 0 % 0 % 0 % 0 m²/s² 0 0 -0.25 3
05:00 148 J/kg -1.1 K 0 % 0 % 0 % 0 m²/s² 0 0 0.31 3
06:00 47 J/kg -0.5 K 0 % 0 % 0 % 0 m²/s² 0 0 1.39 80
07:00 38 J/kg -0.1 K 0 % 0 % 0 % 0 m²/s² 0 0 2.12 80
08:00 59 J/kg 0.2 K 0 % 0 % 0 % 0 m²/s² 0 0 3.02 80
09:00 98 J/kg 0.2 K 0 % 0 % 0 % 0 m²/s² 0 0 3.02 80
10:00 100 J/kg 0.4 K 0 % 0 % 0 % 0 m²/s² 0 0 3.22 80
11:00 178 J/kg -0.3 K 0 % 0 % 0 % 0 m²/s² 0 0 2.85 95
12:00 218 J/kg -0.3 K 0 % 0 % 0 % 0 m²/s² 0 0 2.91 80
13:00 193 J/kg -0.6 K 0 % 0 % 0 % 0 m²/s² 0 0 3.18 95
14:00 232 J/kg -1.0 K 0 % 0 % 0 % 0 m²/s² 0 0 2.99 80
15:00 353 J/kg -1.6 K 0 % 0 % 0 % 0 m²/s² 0 0 1.97 80
16:00 433 J/kg -2.2 K 0 % 0 % 0 % 0 m²/s² 0 0 0.83 80
17:00 379 J/kg -1.9 K 0 % 0 % 0 % 0 m²/s² 0 0 0.74 2
18:00 391 J/kg -2.1 K 0 % 0 % 0 % 0 m²/s² 0 0 0.69 3
19:00 402 J/kg -2.3 K 0 % 0 % 0 % 0 m²/s² 0 0 1.09 3
20:00 344 J/kg -1.6 K 0 % 0 % 0 % 0 m²/s² 0 0 1.43 3
21:00 267 J/kg -1.3 K 0 % 0 % 0 % 0 m²/s² 0 0 0.98 3
22:00 255 J/kg -1.3 K 0 % 0 % 0 % 0 m²/s² 0 0 0.17 3
23:00 135 J/kg -0.9 K 0 % 0 % 0 % 0 m²/s² 0 0 0.39 3
 05:05     21:53    Daglengte: 16:48 Donderdag 29 Jul
00:00 24 J/kg -0.6 K 0 % 0 % 0 % 0 m²/s² 0 0 0.75 3
01:00 0 J/kg -0.2 K 0 % 0 % 0 % 0 m²/s² 0 0 1.09 3
02:00 0 J/kg 0.8 K 0 % 0 % 0 % 0 m²/s² 0 0 1.94 3
03:00 0 J/kg 1.5 K 0 % 0 % 0 % 0 m²/s² 0 0 2.52 3
04:00 0 J/kg 1.3 K 0 % 0 % 0 % 0 m²/s² 0 0 2.29 3
05:00 0 J/kg 0.9 K 0 % 0 % 0 % 0 m²/s² 0 0 1.74 45
06:00 0 J/kg -0.1 K 0 % 0 % 0 % 0 m²/s² 0 0 0.83 45
07:00 0 J/kg -0.5 K 0 % 0 % 0 % 0 m²/s² 0 0 0.46 45
08:00 166 J/kg -0.9 K 0 % 0 % 0 % 0 m²/s² 0 0 -0.42 80
09:00 531 J/kg -2.8 K 0 % 0 % 0 % 0 m²/s² 0 0 -2.35 80
10:00 609 J/kg -2.6 K 0 % 0 % 0 % 0 m²/s² 0 0 -2 80
11:00 543 J/kg -2.3 K 0 % 0 % 0 % 0 m²/s² 0 0 -1.58 80
12:00 842 J/kg -4.0 K 0 % 0 % 0 % 0 m²/s² 0 0 -2.68 80
13:00 1010 J/kg -4.3 K 0 % 0 % 0 % 0 m²/s² 0 0 -3.25 80
14:00 889 J/kg -3.9 K 0 % 0 % 0 % 0 m²/s² 0 0 -1.44 3
Temp Baro Wind Neerslag
  EWN Forecast EWN WRFDA DWD ICON FMI HIRLAM MET Norway GFS
 04:58     22:00    Daglengte: 17:02 Vandaag
17:00 22.9° 1013.5 hPa 3.8 m/s 0.3 mm 25.4° 1012.2 hPa 4.2 m/s 0.1 mm 21.4° 1014.2 hPa 3.7 m/s -1.0 mm 25.3° 1013.5 hPa 3.7 m/s 0.0 mm 24.6° 1013.6 hPa 4.3 m/s
20:00 20.7° 1013.0 hPa 3.2 m/s 1.5 mm 20.2° 1011.8 hPa 5.2 m/s 3.9 mm 19.2° 1013.2 hPa 1.4 m/s 1.9 mm 23.7° 1012.8 hPa 3.2 m/s 0.0 mm 18.1° 1013.4 hPa 2.3 m/s
23:00 18.9° 1013.1 hPa 2.3 m/s 4.7 mm 18.4° 1011.7 hPa 3.4 m/s 9.9 mm 18.6° 1013.3 hPa 1.2 m/s 10.9 mm 19.4° 1012.5 hPa 2.1 m/s 0.0 mm 17.5° 1013.2 hPa 1.7 m/s
 05:00     21:57    Daglengte: 16:57 Morgen
02:00 18.6° 1012.2 hPa 2.7 m/s 9.2 mm 18.0° 1011.1 hPa 3.8 m/s 19.1 mm 18.5° 1012.2 hPa 1.3 m/s 11.8 mm 19.0° 1012.0 hPa 2.7 m/s 0.0 mm 16.9° 1012.9 hPa 1.6 m/s
05:00 18.5° 1011.1 hPa 2.4 m/s 5.2 mm 18.1° 1009.2 hPa 4.5 m/s 27.2 mm 18.4° 1011.0 hPa 2.0 m/s 6.1 mm 18.7° 1011.3 hPa 1.6 m/s 0.0 mm 17.3° 1011.3 hPa 2.1 m/s
08:00 19.4° 1010.8 hPa 2.9 m/s 5.4 mm 19.4° 1009.5 hPa 3.8 m/s 28.8 mm 19.2° 1010.2 hPa 2.5 m/s 3.9 mm 19.7° 1010.9 hPa 2.8 m/s 0.0 mm 18.6° 1011.6 hPa 2.9 m/s
11:00 19.2° 1010.1 hPa 3.7 m/s 12.0 mm 18.4° 1008.7 hPa 3.7 m/s 30.7 mm 18.9° 1010.1 hPa 4.0 m/s 8.8 mm 22.1° 1010.0 hPa 4.0 m/s 0.0 mm 17.8° 1011.0 hPa 2.5 m/s
14:00 19.8° 1009.1 hPa 3.3 m/s 13.2 mm 19.9° 1007.1 hPa 2.2 m/s 37.6 mm 19.5° 1009.4 hPa 2.8 m/s 7.7 mm 22.1° 1008.6 hPa 5.1 m/s 0.0 mm 18.7° 1009.5 hPa 3.6 m/s
17:00 19.8° 1007.9 hPa 2.6 m/s 15.4 mm 22.5° 1006.0 hPa 2.7 m/s 43.5 mm 19.4° 1008.3 hPa 2.5 m/s 8.6 mm 21.1° 1007.1 hPa 3.3 m/s 0.0 mm 18.0° 1008.0 hPa 1.7 m/s
20:00 19.2° 1006.8 hPa 2.3 m/s 12.4 mm 21.8° 1005.3 hPa 2.6 m/s 43.8 mm 18.8° 1007.6 hPa 0.9 m/s 3.9 mm 20.0° 1006.5 hPa 2.4 m/s 0.0 mm 17.8° 1007.0 hPa 1.2 m/s
23:00 17.6° 1007.0 hPa 1.2 m/s 10.6 mm 16.9° 1005.6 hPa 1.6 m/s 43.8 mm 17.7° 1007.1 hPa 0.8 m/s 2.3 mm 17.5° 1007.0 hPa 1.0 m/s 0.0 mm 17.3° 1007.2 hPa 1.4 m/s
 05:02     21:55    Daglengte: 16:53 Woensdag 28 Jul
02:00 17.2° 1006.3 hPa 1.0 m/s 0.0 mm 17.8° 1005.1 hPa 0.9 m/s 44.4 mm 17.2° 1006.1 hPa 0.7 m/s 0.3 mm 16.2° 1006.5 hPa 0.9 m/s 0.0 mm 15.7° 1006.6 hPa 1.4 m/s
05:00 16.6° 1005.0 hPa 1.0 m/s 0.0 mm 17.1° 1004.4 hPa 0.9 m/s 45.7 mm 16.6° 1005.0 hPa 0.6 m/s 0.3 mm 16.0° 1005.6 hPa 1.0 m/s 0.0 mm 15.4° 1005.8 hPa 1.0 m/s
08:00 17.7° 1004.6 hPa 0.8 m/s 6.8 mm 17.1° 1003.9 hPa 1.0 m/s 46.1 mm 17.3° 1004.2 hPa 0.6 m/s 1.1 mm 18.3° 1005.4 hPa 0.5 m/s 0.0 mm 16.8° 1005.6 hPa 0.4 m/s
11:00 18.5° 1004.0 hPa 1.7 m/s 10.4 mm 19.4° 1002.9 hPa 1.6 m/s 46.3 mm 18.5° 1003.9 hPa 1.5 m/s 1.7 mm 17.9° 1005.1 hPa 0.5 m/s
14:00 19.6° 1003.3 hPa 3.0 m/s 12.6 mm 23.6° 1001.5 hPa 3.0 m/s 46.3 mm 19.0° 1003.2 hPa 2.7 m/s 1.9 mm 19.4° 1004.7 hPa 2.7 m/s
17:00 19.9° 1002.5 hPa 3.0 m/s 10.5 mm 24.3° 1000.1 hPa 5.0 m/s 46.3 mm 19.6° 1002.4 hPa 2.7 m/s 0.6 mm 20.6° 1003.8 hPa 3.3 m/s
20:00 18.7° 1001.3 hPa 2.4 m/s 16.6 mm 22.3° 999.0 hPa 4.9 m/s 46.3 mm 18.5° 1001.1 hPa 2.1 m/s 0.2 mm 18.7° 1002.9 hPa 2.5 m/s
23:00 16.3° 1000.6 hPa 1.7 m/s 0.0 mm 17.4° 999.0 hPa 3.6 m/s 46.3 mm 15.9° 1000.2 hPa 1.0 m/s 0.0 mm 15.1° 1002.6 hPa 1.5 m/s
 05:05     21:53    Daglengte: 16:48 Donderdag 29 Jul
02:00 15.4° 999.2 hPa 1.6 m/s 10.5 mm 13.9° 998.7 hPa 2.3 m/s 46.3 mm 15.5° 998.1 hPa 0.5 m/s 0.0 mm 14.2° 1001.3 hPa 0.8 m/s
05:00 15.1° 998.1 hPa 1.8 m/s 17.3 mm 11.9° 998.1 hPa 2.0 m/s 46.3 mm 15.4° 996.2 hPa 0.3 m/s 0.0 mm 14.8° 999.4 hPa 1.0 m/s
08:00 16.2° 997.1 hPa 1.5 m/s 12.5 mm 15.5° 997.2 hPa 1.6 m/s 46.4 mm 16.2° 994.6 hPa 0.7 m/s 0.6 mm 15.6° 997.8 hPa 1.9 m/s
11:00 17.3° 994.2 hPa 2.7 m/s 17.7 mm 17.0° 996.7 hPa 6.0 m/s 48.6 mm 17.4° 993.5 hPa 1.8 m/s 2.2 mm 16.9° 996.7 hPa 3.3 m/s
14:00 18.5° 992.9 hPa 3.0 m/s 19.2 mm 16.8° 995.4 hPa 4.1 m/s 55.9 mm 19.0° 992.3 hPa 2.7 m/s 0.8 mm 16.7° 995.8 hPa 3.6 m/s
17:00 15.0° 995.0 hPa 0.7 m/s 50.0 mm 15.0° 995.0 hPa 0.7 m/s 50.0 mm
20:00 14.4° 993.9 hPa 1.0 m/s 50.8 mm 14.4° 993.9 hPa 1.0 m/s 50.8 mm
23:00 12.2° 992.8 hPa 0.5 m/s 50.8 mm 12.2° 992.8 hPa 0.5 m/s 50.8 mm
 05:07     21:51    Daglengte: 16:44 Vrijdag 30 Jul
02:00 11.5° 991.9 hPa 1.6 m/s 50.8 mm 11.5° 991.9 hPa 1.6 m/s 50.8 mm
05:00 11.1° 991.5 hPa 1.8 m/s 50.8 mm 11.1° 991.5 hPa 1.8 m/s 50.8 mm
08:00 14.5° 991.6 hPa 1.4 m/s 50.8 mm 14.5° 991.6 hPa 1.4 m/s 50.8 mm
11:00 22.1° 992.4 hPa 1.4 m/s 50.8 mm 22.1° 992.4 hPa 1.4 m/s 50.8 mm
14:00 21.3° 993.2 hPa 1.6 m/s 50.9 mm 21.3° 993.2 hPa 1.6 m/s 50.9 mm
17:00 22.5° 994.4 hPa 1.9 m/s 50.9 mm 22.5° 994.4 hPa 1.9 m/s 50.9 mm
20:00 20.4° 994.6 hPa 2.0 m/s 50.9 mm 20.4° 994.6 hPa 2.0 m/s 50.9 mm
23:00 14.9° 995.8 hPa 0.9 m/s 50.9 mm 14.9° 995.8 hPa 0.9 m/s 50.9 mm
 05:09     21:48    Daglengte: 16:39 Zaterdag 31 Jul
02:00 14.2° 996.3 hPa 1.5 m/s 50.9 mm 14.2° 996.3 hPa 1.5 m/s 50.9 mm
05:00 13.7° 996.6 hPa 2.1 m/s 50.9 mm 13.7° 996.6 hPa 2.1 m/s 50.9 mm
08:00 16.7° 996.7 hPa 2.6 m/s 50.9 mm 16.7° 996.7 hPa 2.6 m/s 50.9 mm
11:00 19.4° 997.1 hPa 3.2 m/s 50.9 mm 19.4° 997.1 hPa 3.2 m/s 50.9 mm
14:00 21.6° 996.8 hPa 1.6 m/s 50.9 mm 21.6° 996.8 hPa 1.6 m/s 50.9 mm
17:00 18.8° 996.8 hPa 1.5 m/s 51.0 mm 18.8° 996.8 hPa 1.5 m/s 51.0 mm
20:00 17.1° 996.5 hPa 1.3 m/s 51.9 mm 17.1° 996.5 hPa 1.3 m/s 51.9 mm
23:00 13.5° 996.3 hPa 0.9 m/s 52.3 mm 13.5° 996.3 hPa 0.9 m/s 52.3 mm
 05:11     21:46    Daglengte: 16:35 Zondag 01 Aug
02:00 12.7° 995.6 hPa 1.3 m/s 52.4 mm 12.7° 995.6 hPa 1.3 m/s 52.4 mm
05:00 12.0° 995.2 hPa 1.6 m/s 52.6 mm 12.0° 995.2 hPa 1.6 m/s 52.6 mm
08:00 14.6° 995.0 hPa 1.6 m/s 53.1 mm 14.6° 995.0 hPa 1.6 m/s 53.1 mm
11:00 17.0° 995.2 hPa 2.9 m/s 54.2 mm 17.0° 995.2 hPa 2.9 m/s 54.2 mm
14:00 19.4° 994.9 hPa 3.1 m/s 55.0 mm 19.4° 994.9 hPa 3.1 m/s 55.0 mm
17:00 18.2° 995.2 hPa 2.6 m/s 55.8 mm 18.2° 995.2 hPa 2.6 m/s 55.8 mm
20:00 15.5° 995.8 hPa 1.5 m/s 57.0 mm 15.5° 995.8 hPa 1.5 m/s 57.0 mm
23:00 13.4° 996.3 hPa 1.6 m/s 60.0 mm 13.4° 996.3 hPa 1.6 m/s 60.0 mm
 05:14     21:44    Daglengte: 16:30 Maandag 02 Aug
02:00 12.9° 996.3 hPa 1.4 m/s 60.1 mm 12.9° 996.3 hPa 1.4 m/s 60.1 mm
05:00 12.2° 996.9 hPa 1.1 m/s 60.7 mm 12.2° 996.9 hPa 1.1 m/s 60.7 mm
08:00 13.4° 997.6 hPa 1.2 m/s 61.0 mm 13.4° 997.6 hPa 1.2 m/s 61.0 mm
11:00 16.2° 998.3 hPa 1.0 m/s 62.3 mm 16.2° 998.3 hPa 1.0 m/s 62.3 mm
14:00 17.8° 998.4 hPa 1.7 m/s 63.6 mm 17.8° 998.4 hPa 1.7 m/s 63.6 mm
20:00 15.7° 998.0 hPa 1.3 m/s 65.9 mm 15.7° 998.0 hPa 1.3 m/s 65.9 mm
 05:16     21:41    Daglengte: 16:25 Dinsdag 03 Aug
02:00 8.3° 1001.0 hPa 2.7 m/s 65.9 mm 8.3° 1001.0 hPa 2.7 m/s 65.9 mm
08:00 11.6° 1002.4 hPa 1.6 m/s 65.9 mm 11.6° 1002.4 hPa 1.6 m/s 65.9 mm
14:00 20.1° 1002.0 hPa 2.9 m/s 65.9 mm 20.1° 1002.0 hPa 2.9 m/s 65.9 mm
20:00 17.6° 1002.6 hPa 3.9 m/s 65.9 mm 17.6° 1002.6 hPa 3.9 m/s 65.9 mm
 05:18     21:39    Daglengte: 16:21 Woensdag 04 Aug
02:00 9.3° 1004.9 hPa 1.7 m/s 65.9 mm 9.3° 1004.9 hPa 1.7 m/s 65.9 mm
08:00 12.7° 1004.0 hPa 0.8 m/s 65.9 mm 12.7° 1004.0 hPa 0.8 m/s 65.9 mm
14:00 11.6° 1000.5 hPa 2.6 m/s 69.4 mm 11.6° 1000.5 hPa 2.6 m/s 69.4 mm
20:00 11.8° 998.0 hPa 1.1 m/s 73.2 mm 11.8° 998.0 hPa 1.1 m/s 73.2 mm
 05:20     21:36    Daglengte: 16:16 Donderdag 05 Aug
02:00 11.3° 996.2 hPa 1.1 m/s 73.5 mm 11.3° 996.2 hPa 1.1 m/s 73.5 mm
08:00 13.0° 993.8 hPa 1.5 m/s 73.5 mm 13.0° 993.8 hPa 1.5 m/s 73.5 mm
14:00 19.1° 1006.6 hPa 1.8 m/s 1.3 mm
20:00 17.2° 1005.9 hPa 1.6 m/s 1.5 mm
 05:23     21:34    Daglengte: 16:11 Vrijdag 06 Aug
02:00 13.2° 1006.6 hPa 0.7 m/s 0.6 mm
08:00 14.5° 1005.9 hPa 1.7 m/s 0.6 mm
14:00 18.8° 1005.2 hPa 1.5 m/s 2.2 mm
20:00 17.7° 1003.8 hPa 1.1 m/s 1.9 mm
 05:25     21:31    Daglengte: 16:06 Zaterdag 07 Aug
02:00 13.8° 1004.1 hPa 1.3 m/s 2.1 mm
08:00 14.9° 1004.0 hPa 1.4 m/s 1.4 mm
14:00 19.1° 1003.8 hPa 1.4 m/s 0.5 mm
20:00 17.8° 1003.1 hPa 0.5 m/s 1.3 mm
 05:27     21:29    Daglengte: 16:02 Zondag 08 Aug
02:00 13.9° 1003.8 hPa 1.3 m/s 1.2 mm
08:00 15.0° 1003.6 hPa 1.9 m/s 1.9 mm
14:00 19.2° 1003.9 hPa 1.1 m/s 2.2 mm
20:00 17.6° 1003.7 hPa 0.5 m/s 1.7 mm
 05:29     21:26    Daglengte: 15:57 Maandag 09 Aug
02:00 13.9° 1004.9 hPa 1.0 m/s 1.2 mm
08:00 14.8° 1005.4 hPa 1.0 m/s 0.9 mm
14:00 19.6° 1006.0 hPa 0.9 m/s 0.8 mm
20:00 17.7° 1006.0 hPa 0.9 m/s 1.2 mm